Regional Weather Roundup
Issued by NWS Kansas City/Pleasant Hill, MO

Home | Current Version | Previous Version | Graphics & Text | Print | Product List | Glossary Off
Versions: 1 2 3 4 5 6 7 8 9 10 11 12 13 14 15 16 17 18 19 20 21 22 23 24 25 26 27 28 29 30 31 32 33 34 35 36 37 38 39 40 41 42 43 44 45 46 47 48 49 50

000
ASUS43 KEAX 050510
RWREAX

WEATHER ROUNDUP FOR EASTERN KANSAS AND NORTHWEST MISSOURI
NATIONAL WEATHER SERVICE KANSAS CITY/PLEASANT HILL MO
1100 PM CST SUN DEC 04 2016

KSZ040-057-103>105-MOZ028-029-037-043-050600-
...KANSAS CITY METROPOLITAN AREA...

CITY           SKY/WX    TMP DP  RH WIND       PRES   REMARKS
K.C. INTL      CLEAR     32  29  88 SW6       29.98F WCI  26
K.C. DOWNTOWN  CLEAR     34  33  96 CALM      29.99F
LEES SUMMIT    CLEAR     35  34  96 SW6       29.99F WCI  30
OLATHE - IXD   FOG       31  30  96 S3        30.00S VSB 1/2
OLATHE - OJC   CLEAR     32  32 100 SW5       29.99S FOG     WCI  27
LAWRENCE       CLEAR     25  25 100 CALM      29.99F FOG

$$

MOZ001>008-011>017-020>025-030>033-038>040-044>046-053-054-050600-
...NORTHERN AND CENTRAL MISSOURI...

CITY           SKY/WX    TMP DP  RH WIND       PRES   REMARKS
ST. JOSEPH     CLEAR     30  29  96 S5        29.98F WCI  25
MOSBY          MOCLDY    30  30 100 CALM      30.00S FOG
WARRENSBURG    CLEAR     32  32 100 SE6       30.00F WCI  26
WHITEMAN AFB   CLEAR     32  32 100 CALM      29.99F FOG
CLINTON        CLEAR     28  28 100 CALM      30.03R
SEDALIA        CLEAR     35  33  92 SW3       30.02S
WARSAW         NOT AVBL
CHILLICOTHE      N/A     28  26  92 CALM      30.00F
KIRKSVILLE     PTCLDY    33  32  96 W6        29.99S FOG     WCI  28

$$

MOZ041-047>049-056>058-063>065-088>090-097-050600-
...EASTERN AND SOUTHERN MISSOURI...

CITY           SKY/WX    TMP DP  RH WIND       PRES   REMARKS
ST. LOUIS INTL MOCLDY    39  33  79 CALM      30.03F
SPIRIT OF STL  CLEAR     33  33 100 CALM      30.03S
COLUMBIA       CLEAR     35  34  96 W6        30.02R WCI  30
JEFFERSON CITY FOG       29  28  96 CALM      30.04R VSB 1/2
ROLLA          CLEAR     29  28  96 W5        30.02R FOG     WCI  24
SPRINGFIELD    CLOUDY    30  29  96 S3        30.02R
BRANSON        PTCLDY    36  36 100 CALM      30.05S
JOPLIN         CLOUDY    31  31 100 S3        30.04R FOG
WEST PLAINS    CLOUDY    31  30  96 CALM      30.05R FOG

$$

IAZ060-094-KSZ022-034>040-054-083-096-NEZ052-066-093-050600-
...KANSAS...SOUTHEAST NEBRASKA AND IOWA...

CITY           SKY/WX    TMP DP  RH WIND       PRES   REMARKS
TOPEKA         FOG       29  26  89 CALM      29.98F VSB 1/4
MANHATTAN      CLEAR     29  27  92 CALM      29.95F FOG
EMPORIA        CLEAR     32  31  96 S7        29.98F WCI  26
CHANUTE        FOG       31  30  96 CALM      30.02S VSB 1/4
WICHITA        CLEAR     32  31  96 S6        29.99S WCI  26
OMAHA          CLEAR     31  26  82 SE9       29.90S WCI  23
LINCOLN        CLEAR     31  29  92 SE5       29.90S WCI  26
FALLS CITY     CLEAR     34  32  92 S5        29.94F WCI  30
LAMONI         CLOUDY    32  31  96 S3        29.94F FOG
DES MOINES     CLEAR     33  31  92 SW5       29.93S WCI  29

$$




USA.gov is the U.S. government's official web portal to all federal, state and local government web resources and services.